Hourly Data Report for July 01, 2022

TORONTO CITY
ONTARIO
Current Station Operator: ECCC - MSC

43°40'00.000" N
79°24'00.000" W
112.50 m
6158355
71508
XTO

Download Data

Hourly Data (July 2022)
Hourly Data Report for July 1, 2022
TIME
LST
Temp Definition
°C
Dew Point Definition
°C
Rel Hum Definition
%
Precip. Amount Definition
mm

Wind Dir Definition
10's deg

Wind Spd Definition
km/h
Visibility Definition
km
Stn Press Definition
kPa
Hmdx Definition


Wind Chill Definition


Weather Definition


00:00 20.8 15.5 72 0.0       100.08 25   LegendNANA
01:00 20.8 14.9 69 0.0       100.08 25   LegendNANA
02:00 21.1 14.7 67 0.0       99.99 25   LegendNANA
03:00 21.2 14.5 65 0.0       99.92 25   LegendNANA
04:00 21.7 14.4 63 0.0       99.89 25   LegendNANA
05:00 20.9 14.5 67 0.0       99.91 25   LegendNANA
06:00 21.2 14.9 67 0.0       99.93 25   LegendNANA
07:00 21.7 15.5 68 0.0       99.91 26   LegendNANA
08:00 23.7 15.9 62 0.0       99.92 28   LegendNANA
09:00 24.4 16.4 61 0.0       99.94 29   LegendNANA
10:00 26.0 15.7 53 0.0       99.97 30   LegendNANA
11:00 23.7 17.1 67 0.0       99.95 29   LegendNANA
12:00 24.6 16.4 60 0.3       99.88 29   LegendNANA
13:00 26.8 17.2 56 0.0       99.83 32   LegendNANA
14:00 26.9 17.6 57 0.0       99.76 33   LegendNANA
15:00 26.4 18.0 60 0.0       99.68 32   LegendNANA
16:00 26.2 16.6 56 0.0       99.64 31   LegendNANA
17:00 26.3 17.3 58 0.0       99.61 32   LegendNANA
18:00 27.0 17.7 57 0.0       99.55 33   LegendNANA
19:00 27.2 16.8 53 0.0       99.59 32   LegendNANA
20:00 26.3 16.7 56 0.0       99.67 31   LegendNANA
21:00 25.5 17.1 60 0.0       99.71 31   LegendNANA
22:00 24.4 16.6 62 0.0       99.69 29   LegendNANA
23:00 22.8 17.6 72 0.0       99.76 29   LegendNANA

Notes on Data Quality.

Legend

  • E = Estimated
  • M = Missing
  • NA = Not Available*
  • [empty] = Indicates an unobserved value
Date modified: